Regional Weather Roundup
Issued by NWS Albany, NY

Home | Current Version | Previous Version | Text Only | Print | Product List | Glossary On
Versions: 1 2 3 4 5 6 7 8 9 10 11 12 13 14 15 16 17 18 19 20 21 22 23 24 25 26 27 28 29 30 31 32 33 34 35 36 37 38 39 40 41 42 43 44 45 46 47 48 49 50
309
ASUS41 KALY 231610
RWRALY

NEW YORK STATE HOURLY WEATHER ROUNDUP
NATIONAL WEATHER SERVICE ALBANY NY
1200 PM EDT SAT SEP 23 2017

NOTE: "FAIR" INDICATES FEW OR NO CLOUDS BELOW 12,000 FEET WITH NO
SIGNIFICANT WEATHER AND/OR NO OBSTRUCTIONS TO VISIBILITY.

NYZ032-033-038>043-046>054-057>066-NYZ062>081-082-084-231700-
EAST


CITY           SKY/WX    TMP DP  RH WIND       PRES   REMARKS
ALBANY         MOSUNNY   76  57  51 N8        30.09F
GLENS FALLS    SUNNY     74  52  46 CALM      30.08F
POUGHKEEPSIE   SUNNY     77  55  46 W7        30.06F
NEWBURGH       SUNNY     79  57  47 NE7       30.10F
MONTGOMERY     SUNNY     78  59  51 N5        30.07F
WHITE PLAINS   SUNNY     81  57  43 N13       30.05F
ISLIP          MOSUNNY   80  63  55 N17G23    30.02S
NEW YORK CITY  MOSUNNY   80  57  45 N15G22    30.04F
CENTRAL PARK   SUNNY     81  57  43 VRB7      30.08S
$$

NYZ005>009-017-018-044>046-055-056-231700-
CENTRAL


CITY           SKY/WX    TMP DP  RH WIND       PRES   REMARKS
FULTON         SUNNY     80  58  46 NW5       30.13F
SYRACUSE       MOSUNNY   77  57  50 VRB5      30.12F
ROME           SUNNY     68  60  75 CALM      30.13F
ELMIRA         SUNNY     76  61  59 CALM      30.15F
BINGHAMTON     SUNNY     76  54  46 N9        30.16S
MONTICELLO     SUNNY     78  51  38 NW10      30.13F
$$

NYZ026>034-041>043-087-231700-
NORTH


CITY           SKY/WX    TMP DP  RH WIND       PRES   REMARKS
WATERTOWN      SUNNY     77  55  46 SW8       30.11F
FORT DRUM      NOT AVBL
OGDENSBURG     FAIR      82  64  53 W5        30.08S
MASSENA        SUNNY     79  63  57 SW10      30.07F
SARANAC LAKE   SUNNY     75  53  46 W7        30.13F
PLATTSBURGH    SUNNY     69  57  65 SE9       30.08F
$$

NYZ001>004-010>016-019>021-085-231700-
WEST


CITY           SKY/WX    TMP DP  RH WIND       PRES   REMARKS
NIAGARA FALLS  SUNNY     82  63  52 W7        30.14S
BUFFALO        MOSUNNY   80  57  45 SW7       30.15F
DUNKIRK        SUNNY     80  60  50 CALM      30.16F
JAMESTOWN      SUNNY     76  59  55 N6        30.22S
WELLSVILLE     SUNNY     78  51  38 N5        30.23S
ROCHESTER      SUNNY     80  48  32 SW6       30.14F
PENN YAN       SUNNY     77  58  51 CALM      30.16F
$$

             KEY
       WCI = WIND CHILL INDEX
       VSB = VISIBILITY
       HX  = HEAT INDEX
$$




USA.gov is the U.S. government's official web portal to all federal, state and local government web resources and services.